Tracking 18945 objects as of 20-Jan-2018
HD Live streaming from Space Station
objects crossing your sky now

NNSS 20 (TRANSIT 20)

Track NNSS 20 (TRANSIT 20) now!
10-day predictions
NNSS 20 (TRANSIT 20) is classified as:


NORAD ID: 6909
Int'l Code: 1973-081A
Perigee: 887.6 km
Apogee: 1,122.5 km
Inclination: 89.8 °
Period: 105.1 minutes
Semi major axis: 7376 km
RCS: 1.4124 m2 (large)
Launch date: October 30, 1973
Source: United States (US)
Launch site: AIR FORCE WESTERN TEST RANGE (AFWTR)
aabbcc
Your satellite tracking list
Your tracking list is empty




NASA's NSSDC Master Catalog

Two Line Element Set (TLE):
1 06909U 73081A   18020.10402078  .00000136  00000-0  12801-3 0  9991
2 06909  89.8267 308.6241 0159260  76.0898 285.7921 13.70468844408866
Source of the keplerian elements: AFSPC